| time (UTC) | temp F | wind direction | speed MPH | gust MPH | rain 1hr in | rain 24hr in | rain mn in | humidity % | barometer mb |
| 20260504033901 | 48 | 67 | 1.0 | 2.0 | 0.00 | 0.00 | 0.00 | 67 | |
| 20260504032402 | 49 | 67 | 2.0 | 5.0 | 0.00 | 0.00 | 0.00 | 67 | |
| 20260504030901 | 49 | 45 | 1.0 | 3.0 | 0.00 | 0.00 | 0.00 | 66 | |
| 20260504025401 | 49 | 67 | 1.0 | 4.0 | 0.00 | 0.00 | 0.00 | 66 | |
| 20260504023901 | 49 | 90 | 1.0 | 4.0 | 0.00 | 0.00 | 0.00 | 66 | |
| 20260504022402 | 49 | 90 | 1.0 | 4.0 | 0.00 | 0.00 | 0.00 | 65 | |
| 20260504020903 | 50 | 90 | 2.0 | 5.0 | 0.00 | 0.00 | 0.00 | 65 | |
| 20260504015403 | 50 | 45 | 3.0 | 7.0 | 0.00 | 0.00 | 0.00 | 65 | |
| 20260504013903 | 50 | 67 | 3.0 | 8.0 | 0.00 | 0.00 | 0.00 | 64 | |
| 20260504012403 | 50 | 67 | 3.0 | 7.0 | 0.00 | 0.00 | 0.00 | 65 | |
| 20260504010902 | 50 | 67 | 2.0 | 5.0 | 0.00 | 0.00 | 0.00 | 64 | |
| 20260504005402 | 51 | 90 | 3.0 | 6.0 | 0.00 | 0.00 | 0.00 | 64 | |
| 20260504003902 | 51 | 67 | 1.0 | 3.0 | 0.00 | 0.00 | 0.00 | 63 | |
| 20260504002402 | 51 | 67 | 2.0 | 6.0 | 0.00 | 0.00 | 0.00 | 62 | |
| 20260504000902 | 52 | 45 | 2.0 | 7.0 | 0.00 | 0.00 | 0.00 | 62 | |
| 20260503235402 | 52 | 67 | 3.0 | 8.0 | 0.00 | 0.00 | 0.00 | 61 | |
| 20260503233902 | 53 | 45 | 2.0 | 5.0 | 0.00 | 0.00 | 0.00 | 59 | |
| 20260503232401 | 53 | 67 | 4.0 | 10.0 | 0.00 | 0.00 | 0.00 | 59 | |
| 20260503230901 | 54 | 45 | 4.0 | 8.0 | 0.00 | 0.00 | 0.00 | 58 | |
| 20260503225402 | 54 | 67 | 3.0 | 8.0 | 0.00 | 0.00 | 0.00 | 57 | |
| 20260503223902 | 54 | 22 | 3.0 | 9.0 | 0.00 | 0.00 | 0.00 | 57 | |
| 20260503222402 | 55 | 45 | 3.0 | 7.0 | 0.00 | 0.00 | 0.00 | 56 | |
| 20260503220901 | 55 | 67 | 4.0 | 9.0 | 0.00 | 0.00 | 0.00 | 56 | |
| 20260503215402 | 55 | 67 | 3.0 | 8.0 | 0.00 | 0.00 | 0.00 | 55 | |
| 20260503213902 | 56 | 22 | 4.0 | 9.0 | 0.00 | 0.00 | 0.00 | 54 | |
| 20260503212402 | 56 | 67 | 4.0 | 9.0 | 0.00 | 0.00 | 0.00 | 54 | |
| 20260503210902 | 56 | 67 | 2.0 | 6.0 | 0.00 | 0.00 | 0.00 | 54 | |
| 20260503205402 | 57 | 45 | 4.0 | 10.0 | 0.00 | 0.00 | 0.00 | 53 | |
| 20260503203902 | 57 | 45 | 4.0 | 8.0 | 0.00 | 0.00 | 0.00 | 54 | |
| 20260503202402 | 57 | 45 | 3.0 | 10.0 | 0.00 | 0.00 | 0.00 | 52 | |
| 20260503200901 | 58 | 22 | 3.0 | 11.0 | 0.00 | 0.00 | 0.00 | 52 | |
| 20260503195402 | 59 | 45 | 3.0 | 10.0 | 0.00 | 0.00 | 0.00 | 51 | |
| 20260503193902 | 59 | 45 | 3.0 | 9.0 | 0.00 | 0.00 | 0.00 | 51 | |
| 20260503192401 | 59 | 67 | 4.0 | 8.0 | 0.00 | 0.00 | 0.00 | 50 | |
| 20260503190901 | 60 | 90 | 3.0 | 9.0 | 0.00 | 0.00 | 0.00 | 49 | |
| 20260503185403 | 60 | 90 | 3.0 | 8.0 | 0.00 | 0.00 | 0.00 | 49 | |
| 20260503183902 | 61 | 112 | 3.0 | 11.0 | 0.00 | 0.00 | 0.00 | 48 | |
| 20260503182403 | 62 | 90 | 4.0 | 10.0 | 0.00 | 0.00 | 0.00 | 47 | |
| 20260503180902 | 63 | 67 | 3.0 | 13.0 | 0.00 | 0.00 | 0.00 | 46 | |
| 20260503175403 | 63 | 67 | 4.0 | 12.0 | 0.00 | 0.00 | 0.00 | 46 | |
| 20260503173902 | 64 | 45 | 4.0 | 13.0 | 0.00 | 0.00 | 0.00 | 45 | |
| 20260503172402 | 65 | 45 | 6.0 | 13.0 | 0.00 | 0.00 | 0.00 | 44 | |
| 20260503170902 | 66 | 67 | 4.0 | 12.0 | 0.00 | 0.00 | 0.00 | 44 | |
| 20260503150902 | 70 | 112 | 3.0 | 17.0 | 0.00 | 0.00 | 0.00 | 37 | |
| 20260503130901 | 75 | 225 | 2.0 | 9.0 | 0.00 | 0.00 | 0.00 | 34 | |
| 20260503080903 | 64 | 67 | 2.0 | 9.0 | 0.00 | 0.00 | 0.00 | 48 | |
| 20260503072402 | 64 | 157 | 1.0 | 4.0 | 0.00 | 0.00 | 0.00 | 48 | |
| 20260503070901 | 62 | 45 | 3.0 | 11.0 | 0.00 | 0.00 | 0.00 | 49 | |
| 20260503053902 | 62 | 22 | 3.0 | 8.0 | 0.00 | 0.00 | 0.00 | 44 | |
| 20260503052403 | 61 | 22 | 3.0 | 11.0 | 0.00 | 0.00 | 0.00 | 46 | |
| 20260503050902 | 59 | 90 | 2.0 | 4.0 | 0.00 | 0.00 | 0.00 | 51 | |
| 20260503043905 | 50 | 45 | 2.0 | 4.0 | 0.00 | 0.00 | 0.00 | 64 | |
| 20260503042402 | 44 | 112 | 0.0 | 1.0 | 0.00 | 0.00 | 0.00 | 77 | |
| 20260503040901 | 38 | 0 | 0.0 | 0.0 | 0.00 | 0.00 | 0.00 | 83 | |
| 20260503035401 | 38 | 0 | 0.0 | 1.0 | 0.00 | 0.00 | 0.00 | 83 |